TIME,DELAY(SENSOR),PRES,OXYGEN,RAWTEMP,T(OPTODE),TCPHASE,FLUOR,BETA(BETA700),BETA(BETA412),BETA(BETA440),CDOM,C(CSC),ED(ED412.40),ED(ED444.00),ED(ED489.70),ED(ED554.30),LU(LU411.80),LU(LU443.40),LU(LU489.60),LU(LU554.10),COMP,TILTX,TILTY,CHECK
1363664827,5805,841.8400268554688000,44.6323089599609400,660.6340942382812000,4.6070938110351560,54.3185882568359400,52,101,86,79,79,14724,2147753773,2147426294,2148011026,2147876032,2147640530,2147053622,2148257874,2147194377,931,4,14,5081
1363668423,5809,919.9699707031250000,48.3341102600097660,668.0007934570312000,4.3642158508300780,53.8791198730468750,53,99,89,79,81,14729,2147756845,2147425380,2148007881,2147875410,2147641755,2147053302,2148261805,2147197184,381,4,13,63206
1363672023,5811,941.0999755859375000,48.8855895996093750,669.1751708984375000,4.3254408836364750,53.8128204345703100,52,100,86,79,79,14726,2147757202,2147421961,2148010605,2147876608,2147644470,2147054692,2148260635,2147196580,50,4,13,15414
1363675623,5810,972.9000244140625000,49.2176513671875000,672.4619750976562000,4.2168350219726560,53.8079299926757800,53,98,87,78,79,14728,2147757558,2147425170,2148011401,2147874669,2147639094,2147052937,2148260745,2147198601,3226,4,13,64798
1363679223,5809,969.5700073242188000,49.0267105102539060,672.3920288085938000,4.2191472053527830,53.8376884460449200,53,97,87,80,80,14726,2147756461,2147423689,2148010075,2147877787,2147643035,2147058934,2148266989,2147196873,144,4,13,6227
1363682823,5807,980.2299804687500000,48.8854598999023440,672.3883056640625000,4.2192711830139160,53.8584709167480500,52,100,85,79,79,14725,2147759853,2147425042,2148012077,2147877366,2147647570,2147053339,2148264832,2147195501,3252,4,13,22983
1363686423,5806,982.5700073242188000,48.9742584228515600,670.7772216796875000,4.2725219726562500,53.8228797912597660,53,98,85,79,80,14725,2147754779,2147425910,2148007643,2147874386,2147641069,2147056365,2148257389,2147196470,141,4,13,55752
1363690023,5805,990.6400146484375000,48.5985183715820300,669.3767700195312000,4.3187808990478520,53.8597488403320300,52,101,87,79,80,14721,2147758180,2147427081,2148010523,2147875254,2147642770,2147055817,2148262043,2147197769,165,4,13,53791
1363693623,5809,979.4699707031250000,48.5063514709472660,670.2614135742188000,4.2895641326904300,53.8802108764648440,53,98,84,79,80,14721,2147758281,2147426486,2148010633,2147874944,2147642752,2147049609,2148261604,2147200027,3457,4,13,37292
1363697223,5810,984.6900024414062000,48.7859992980957000,671.8361816406250000,4.2375221252441410,53.8626213073730500,53,101,83,80,80,14720,2147758848,2147421248,2148010578,2147874998,2147643145,2147053485,2148265417,2147198436,195,4,13,10759
1363700823,5809,983.9899902343750000,48.7167510986328100,671.7034912109375000,4.2419090270996090,53.8719711303710940,52,98,85,79,81,14726,2147758217,2147423149,2148011117,2147877074,2147642496,2147050194,2148264475,2147198793,300,4,13,2735
1363704423,5806,985.5599975585938000,48.6556701660156250,671.0687255859375000,4.2628898620605470,53.8722305297851560,53,98,87,79,80,14722,2147760740,2147422994,2148010532,2147877184,2147640310,2147055798,2148261494,2147198628,124,4,13,2570
1363708023,5804,981.6699829101562000,48.7097091674804700,673.5383911132812000,4.1812400817871090,53.8949089050293000,52,100,84,79,79,14722,2147756132,2147427757,2148011245,2147877293,2147644041,2147057033,2148260736,2147196690,226,4,13,42991
1363711623,5813,982.4799804687500000,49.0237388610839840,673.9152221679688000,4.1687769889831540,53.8543205261230500,52,100,86,79,80,14721,2147758555,2147424091,2148008402,2147873947,2147642148,2147059794,2148265682,2147194368,22,4,13,22664
1363715223,5809,984.7000122070312000,48.6348381042480500,673.1132202148438000,4.1953010559082030,53.8989601135253900,52,99,86,81,79,14725,2147757952,2147425453,2148009179,2147874880,2147638774,2147054875,2148261302,2147197074,3374,4,13,11850
1363718823,5809,988.9400024414062000,48.8136405944824200,673.2927246093750000,4.1893649101257320,53.8773803710937500,51,97,91,79,81,14726,2147756406,2147422738,2148010633,2147872740,2147642075,2147058185,2148259218,2147199917,3479,4,13,37002
1363722423,5810,990.2100219726562000,48.8545303344726560,671.3892211914062000,4.2522950172424320,53.8460083007812500,52,190,86,78,80,14723,2147758253,2147425051,2148009517,2147874486,2147643675,2147057316,2148267126,2147194084,3544,4,13,10661
1363726023,5811,990.5599975585938000,48.5201301574707000,670.7462158203125000,4.2735438346862790,53.8832283020019500,53,100,85,79,80,14725,2147758381,2147426834,2148010285,2147877467,2147642834,2147056886,2148262317,2147197632,85,4,13,60971
1363729623,5809,995.4699707031250000,48.7390213012695300,670.6469726562500000,4.2768230438232420,53.8540611267089840,53,98,86,79,80,14724,2147758363,2147424822,2148009170,2147875126,2147640960,2147055588,2148260800,2147199616,3421,4,13,43736
1363733223,5804,988.7399902343750000,48.3895492553710940,670.3972778320312000,4.2850699424743650,53.9017906188964840,53,100,88,78,80,14721,2147757933,2147422052,2148009225,2147877933,2147641490,2147056100,2148262034,2147196086,266,4,13,41916
1363736823,5807,996.4699707031250000,48.4717102050781250,669.9365844726562000,4.3002910614013670,53.8821296691894500,53,98,85,78,80,14725,2147760411,2147421677,2148011008,2147874550,2147640091,2147056731,2148263625,2147194523,153,4,13,56223
1363740423,5812,994.7999877929688000,47.6836585998535160,670.3214111328125000,4.2875790596008300,53.9992408752441400,52,98,85,79,81,14725,2147756205,2147425298,2148013184,2147873755,2147642596,2147061257,2148265654,2147197193,45,4,13,41942
1363744023,5809,993.4699707031250000,48.6888694763183600,670.8986816406250000,4.2685050964355470,53.8644905090332000,52,98,84,78,79,14720,2147757339,2147425225,2148007652,2147878537,2147644781,2147057042,2148262070,2147199241,511,4,13,58391
1363747623,5809,992.1400146484375000,48.3670501708984400,671.5900268554688000,4.2456588745117190,53.9203605651855500,53,98,85,78,80,14721,2147755529,2147422473,2148010788,2147878226,2147646774,2147055744,2148259218,2147195620,286,4,13,56723
1363751223,5812,993.4400024414062000,48.7901000976562500,671.9937744140625000,4.2323107719421390,53.8631896972656250,52,97,87,79,79,14721,2147756928,2147423067,2148008429,2147876992,2147642505,2147054601,2148260224,2147199652,3230,4,13,3735
1363754823,5813,988.4899902343750000,48.8042297363281250,674.1403198242188000,4.1613330841064450,53.8897209167480500,52,99,88,78,80,14722,2147758107,2147422866,2148009289,2147876882,2147640237,2147058532,2148265252,2147198838,634,4,13,28735
1363758423,5808,984.2600097656250000,49.2865905761718750,675.4946289062500000,4.1165161132812500,53.8383102416992200,52,100,86,79,80,14714,2147754267,2147423981,2148011126,2147874194,2147644571,2147057554,2148261531,2147197686,3480,4,13,52808
1363762023,5809,993.0700073242188000,49.1552696228027340,674.1392822265625000,4.1613640785217285,53.8381118774414060,52,97,85,79,79,14720,2147759350,2147422180,2148011227,2147874861,2147642130,2147051977,2148258496,2147195565,194,4,13,7225
1363765623,5808,991.7999877929688000,48.9060592651367200,674.1591796875000000,4.1607060432434080,53.8757591247558600,53,97,85,78,80,14694,2147757202,2147421330,2148011712,2147876096,2147643794,2147054601,2148258578,2147196681,0,4,13,2249
1363769223,5807,989.4199829101562000,48.4643783569335940,674.7495727539062000,4.1411709785461430,53.9436912536621100,52,100,86,78,80,14694,2147757641,2147421769,2148010642,2147876324,2147641389,2147058998,2148261449,2147195520,163,4,13,14577
1363772823,5808,999.6799926757812000,48.2825584411621100,673.5214233398438000,4.1818032264709470,53.9563789367675800,52,98,87,78,80,14690,2147756982,2147424420,2148010395,2147877001,2147644553,2147051282,2148260269,2147200118,179,4,13,63386
1363776423,5808,993.8499755859375000,48.1306915283203100,672.3801879882812000,4.2195382118225100,53.9588203430175800,52,99,88,78,80,14693,2147756123,2147421394,2148008091,2147876077,2147642020,2147057206,2148262738,2147197412,3529,4,13,20962
1363780023,5806,1009.6900024414062000,48.9420814514160160,670.4771118164062000,4.2824358940124510,53.8205718994140600,51,100,85,79,80,14690,2147756681,2147426221,2148010889,2147875309,2147642386,2147055323,2148261284,2147198784,3381,4,13,63463
1363783623,5804,990.2500000000000000,48.3670997619628900,670.8054809570312000,4.2715849876403810,53.9085388183593750,52,99,92,78,82,14693,2147759305,2147425481,2148010678,2147875958,2147643474,2147056987,2148260507,2147199186,100,4,13,15907
1363787223,5809,998.4099731445312000,48.3056793212890600,672.6384277343750000,4.2109999656677250,53.9379882812500000,53,98,90,80,81,14691,2147756982,2147424411,2148012589,2147877110,2147643254,2147056932,2148260315,2147197741,2889,4,13,51049
1363790823,5810,994.2500000000000000,48.1863899230957000,673.0994873046875000,4.1957550048828125,53.9631805419921900,52,96,85,79,80,14694,2147757668,2147424822,2148012598,2147876571,2147642285,2147054592,2148253357,2147196608,111,4,13,53738
1363794423,5809,985.5599975585938000,48.2248306274414060,673.2454223632812000,4.1909289360046390,53.9577293395996100,53,99,86,81,81,14690,2147757065,2147424841,2148013568,2147878162,2147641398,2147054308,2148265225,2147196836,222,4,13,16020
1363798023,5810,990.0499877929688000,48.4239807128906250,674.0910034179688000,4.1629600524902340,53.9388999938964840,52,98,88,77,80,14691,2147757046,2147421412,2148009069,2147875209,2147644114,2147054729,2148260086,2147193636,344,4,13,45057
1363801623,5809,989.5599975585938000,48.7519989013671900,673.5811767578125000,4.1798248291015625,53.8906288146972660,53,98,86,78,80,14688,2147754706,2147421714,2148012114,2147876288,2147643136,2147050038,2148265645,2147194916,3534,4,13,53314
1363805223,5807,994.7800292968750000,48.4082603454589840,673.6920776367188000,4.1761569976806640,53.9361000061035160,52,98,85,80,81,14690,2147757376,2147424704,2148012278,2147875949,2147642148,2147054171,2148260196,2147199314,2976,4,13,9625
1363808823,5810,995.0000000000000000,48.5655403137207000,673.8530273437500000,4.1708340644836430,53.9191017150878900,52,97,87,80,82,14689,2147759158,2147425142,2148011017,2147875584,2147643830,2147058797,2148259520,2147198619,3531,4,13,14894
1363810256,5810,1002.5100097656250000,48.9907417297363300,673.1676025390625000,4.1935019493103030,53.8507385253906250,52,98,87,79,80,14718,2147757549,2147425664,2148007844,2147877028,2147642130,2147056201,2148261449,2147197622,2974,4,13,12421
